Location: ????????
(60.5616°N, 46.8254°E)
Time: 04:49:50
(UTC+00:00)

Meteor 2-11 Rocket - Pass Details

Date: 18 February 2020
Orbit: 939 x 957 km, 82.5° (Epoch: 29 March)

Event Time Altitude Azimuth Distance (km) Brightness Sun altitude
Exits shadow 17:30:55 38° 192° (SSW) 1,420 5.2 -27.3°
Maximum altitude 17:33:29 89° 108° (ESE) 955 4.3 -27.6°
Drops below altitude 10° 17:39:37 10° 15° (NNE) 2,675 6.9 -28.3°
Sets 17:42:07 0° 15° (NNE) 3,622 7.7 -28.5°
